period_start,C,m1,H,J0,J1,J2,J3,J4,J5,JA,JB,JC,JD,JJ,JK,JN,#
2015-12-15 00:03:48,0.10,8.92,0.00,12.31,16.59,20.51,15.34,52.13,1022.93,2069.07,1391.07,1644.53,1836.82,600.40,622.57,55.35,0000 0000 0000 0000 000000
2015-12-15 00:08:49,0.10,8.93,0.00,12.31,16.59,20.48,15.33,52.15,1022.92,2069.09,1390.46,1644.01,1836.05,599.99,622.23,55.40,0000 0000 0000 0000 000000
2015-12-15 00:13:51,0.05,8.93,0.00,12.35,16.59,20.56,15.34,52.17,1022.78,2069.10,1390.01,1643.76,1835.85,600.11,622.22,55.45,0000 0000 0000 0000 000000
2015-12-15 00:18:52,0.10,8.93,0.00,12.34,16.59,20.53,15.24,52.05,1022.70,2069.03,1389.64,1643.04,1835.06,600.20,622.17,55.50,0000 0000 0000 0000 000000
2015-12-15 00:23:53,0.07,8.94,0.00,12.32,16.61,20.55,15.25,52.19,1022.80,2069.05,1389.02,1642.78,1834.72,599.82,621.96,55.55,0000 0000 0000 0000 000000
2015-12-15 00:28:55,0.12,8.94,0.00,12.33,16.62,20.54,15.40,52.17,1022.64,2069.02,1388.35,1642.05,1834.02,599.94,621.81,55.60,0000 0000 0000 0000 000000
2015-12-15 00:33:56,0.05,8.95,0.00,12.34,16.62,20.51,15.26,52.22,1022.57,2069.02,1387.98,1641.84,1833.53,600.16,622.02,55.65,0000 0000 0000 0000 000000
2015-12-15 00:38:57,0.12,8.95,0.00,12.33,16.62,20.55,15.33,52.22,1022.60,2069.01,1387.33,1641.07,1833.00,599.99,621.94,55.71,0000 0000 0000 0000 000000
2015-12-15 00:43:58,0.05,8.96,0.00,12.34,16.64,20.56,15.33,52.27,1022.53,2069.01,1386.99,1640.88,1832.38,600.05,621.94,55.76,0000 0000 0000 0000 000000
2015-12-15 00:49:00,0.13,8.96,0.00,12.35,16.64,20.56,15.41,52.23,1022.48,2069.01,1386.17,1640.10,1831.89,600.12,621.90,55.81,0000 0000 0000 0000 000000
2015-12-15 00:54:01,0.15,8.97,0.00,12.36,16.64,20.56,15.38,52.24,1022.49,2069.00,1385.32,1639.56,1831.09,600.42,622.25,55.86,0000 0000 0000 0000 000000
2015-12-15 00:59:03,0.09,8.97,0.00,12.33,16.64,20.58,15.30,52.30,1022.49,2069.00,1384.76,1639.02,1830.49,600.25,622.05,55.91,0000 0000 0000 0000 000000
2015-12-15 01:04:04,0.11,8.98,0.00,12.34,16.64,20.58,15.25,52.23,1022.48,2069.00,1384.01,1638.35,1829.97,600.23,622.03,55.96,0000 0000 0000 0000 000000
2015-12-15 01:09:05,0.08,8.99,0.00,12.36,16.65,20.54,15.27,52.25,1022.49,2069.00,1383.59,1638.00,1829.17,599.80,621.55,56.01,0000 0000 0000 0000 000000
2015-12-15 01:14:07,0.15,8.99,0.00,12.35,16.66,20.56,15.25,52.26,1022.49,2069.00,1382.72,1637.29,1828.63,600.08,621.92,56.06,0000 0000 0000 0000 000000
2015-12-15 01:19:08,0.07,9.00,0.00,12.35,16.67,20.60,15.32,52.28,1022.48,2069.00,1381.99,1636.85,1828.00,600.08,621.91,56.11,0000 0000 0000 0000 000000
2015-12-15 01:24:09,0.13,9.00,0.00,12.37,16.67,20.61,15.25,52.25,1022.48,2069.00,1381.62,1636.06,1827.30,600.25,622.02,56.16,0000 0000 0000 0000 000000
2015-12-15 01:29:11,0.07,9.01,0.00,12.39,16.67,20.58,15.33,52.21,1022.48,2069.00,1381.00,1635.71,1826.78,599.96,621.70,56.21,0000 0000 0000 0000 000000
2015-12-15 01:34:12,0.11,9.01,0.00,12.39,16.67,20.54,15.33,52.02,1022.48,2069.00,1380.50,1635.04,1826.04,600.15,621.85,56.26,0000 0000 0000 0000 000000
2015-12-15 01:39:13,0.17,9.02,0.00,12.38,16.67,20.57,15.27,51.98,1022.48,2069.00,1379.59,1634.47,1825.29,600.31,622.10,56.31,0000 0000 0000 0000 000000
2015-12-15 01:44:15,0.06,9.03,0.00,12.36,16.67,20.60,15.26,51.98,1022.48,2068.99,1379.01,1633.93,1824.66,599.89,621.73,56.36,0000 0000 0000 0000 000000
2015-12-15 01:49:16,0.14,9.03,0.00,12.37,16.67,20.58,15.23,51.94,1022.49,2068.99,1378.22,1633.14,1824.00,599.77,621.61,56.41,0000 0000 0000 0000 000000
2015-12-15 01:54:17,0.11,9.04,0.00,12.37,16.67,20.56,15.29,51.96,1022.49,2068.99,1377.72,1632.71,1823.20,600.24,622.04,56.46,0000 0000 0000 0000 000000
2015-12-15 01:59:18,0.15,9.04,0.00,12.35,16.65,20.60,15.28,52.02,1022.49,2068.99,1376.70,1632.00,1822.49,600.18,622.13,56.51,0000 0000 0000 0000 000000
2015-12-15 02:04:20,0.13,9.05,0.00,12.36,16.64,20.58,15.29,51.95,1022.49,2068.99,1375.84,1631.24,1821.78,600.21,622.11,56.56,0000 0000 0000 0000 000000
2015-12-15 02:09:21,0.13,9.06,0.00,12.37,16.64,20.52,15.21,52.08,1022.48,2068.99,1375.01,1630.63,1821.02,599.34,621.18,56.61,0000 0000 0000 0000 000000
2015-12-15 02:14:22,0.13,9.07,0.00,12.37,16.64,20.55,15.29,51.90,1022.48,2068.99,1374.13,1630.02,1820.31,599.93,621.67,56.67,0000 0000 0000 0000 000000
2015-12-15 02:19:23,0.15,9.07,0.00,12.35,16.62,20.54,15.28,52.05,1022.48,2068.99,1373.31,1629.30,1819.76,599.82,621.46,56.72,0000 0000 0000 0000 000000
2015-12-15 02:24:25,0.12,9.08,0.00,12.35,16.62,20.56,15.28,52.14,1022.48,2068.99,1372.37,1628.79,1819.01,599.93,621.91,56.77,0000 0000 0000 0000 000000
2015-12-15 02:29:26,0.10,9.09,0.00,12.35,16.62,20.57,15.30,52.17,1022.48,2068.99,1371.88,1628.04,1818.20,600.13,621.99,56.82,0000 0000 0000 0000 000000
2015-12-15 02:34:28,0.12,9.09,0.00,12.35,16.62,20.48,15.34,52.05,1022.49,2068.99,1371.07,1627.67,1817.72,600.51,622.36,56.87,0000 0000 0000 0000 000000
2015-12-15 02:39:29,0.12,9.10,0.00,12.35,16.62,20.49,15.28,52.12,1022.48,2069.00,1370.32,1626.98,1817.01,600.23,621.92,56.92,0000 0000 0000 0000 000000
2015-12-15 02:44:30,0.16,9.10,0.00,12.37,16.62,20.52,15.31,52.10,1022.48,2069.00,1369.55,1626.20,1816.25,599.91,621.87,56.97,0000 0000 0000 0000 000000
2015-12-15 02:49:31,0.11,9.11,0.00,12.38,16.62,20.56,15.27,52.12,1022.48,2069.01,1368.73,1625.76,1815.67,600.02,621.86,57.02,0000 0000 0000 0000 000000
2015-12-15 02:54:33,0.07,9.12,0.00,12.39,16.62,20.50,15.25,51.98,1022.48,2069.02,1368.17,1625.04,1815.02,599.81,621.54,57.07,0000 0000 0000 0000 000000
2015-12-15 02:59:34,0.18,9.12,0.00,12.37,16.63,20.52,15.21,52.20,1022.48,2069.01,1367.38,1624.52,1814.25,599.87,621.66,57.12,0000 0000 0000 0000 000000
2015-12-15 03:04:35,0.10,9.13,0.00,12.37,16.64,20.53,15.30,52.39,1022.48,2069.02,1366.55,1624.00,1813.76,600.20,621.98,57.17,0000 0000 0000 0000 000000
2015-12-15 03:09:37,0.10,9.13,0.00,12.38,16.64,20.55,15.28,52.59,1022.48,2069.02,1366.00,1623.37,1813.03,600.05,621.85,57.22,0000 0000 0000 0000 000000
2015-12-15 03:14:38,0.09,9.14,0.00,12.39,16.64,20.56,15.25,52.39,1022.49,2069.01,1365.61,1622.95,1812.50,599.49,621.15,57.27,0000 0000 0000 0000 000000
2015-12-15 03:19:39,0.09,9.14,0.00,12.36,16.65,20.56,15.29,52.45,1022.49,2069.01,1365.01,1622.27,1811.88,599.92,621.70,57.32,0000 0000 0000 0000 000000
2015-12-15 03:24:41,0.13,9.15,0.00,12.36,16.67,20.54,15.31,52.24,1022.49,2069.01,1364.33,1621.76,1811.06,600.24,622.03,57.37,0000 0000 0000 0000 000000
2015-12-15 03:29:42,0.15,9.16,0.00,12.40,16.67,20.61,15.33,52.34,1022.49,2069.00,1363.43,1621.02,1810.21,599.95,621.75,57.42,0000 0000 0000 0000 000000
2015-12-15 03:34:44,0.17,9.17,0.00,12.38,16.67,20.62,15.26,52.22,1022.52,2069.00,1362.46,1620.25,1809.47,600.17,621.86,57.48,0000 0000 0000 0000 000000
2015-12-15 03:39:45,0.05,9.17,0.00,12.37,16.67,20.61,15.30,52.32,1022.53,2069.00,1362.00,1619.78,1808.86,599.86,621.64,57.53,0000 0000 0000 0000 000000
2015-12-15 03:44:46,0.15,9.18,0.00,12.38,16.68,20.59,15.29,52.16,1022.50,2069.00,1361.14,1619.02,1808.05,600.13,621.83,57.58,0000 0000 0000 0000 000000
2015-12-15 03:49:47,0.17,9.19,0.00,12.39,16.69,20.62,15.22,52.17,1022.50,2069.00,1360.37,1618.29,1807.27,599.99,621.81,57.63,0000 0000 0000 0000 000000
2015-12-15 03:54:49,0.16,9.19,0.00,12.40,16.69,20.65,15.28,52.21,1022.49,2069.00,1359.41,1617.62,1806.46,600.14,621.84,57.68,0000 0000 0000 0000 000000
2015-12-15 03:59:50,0.04,9.20,0.00,12.40,16.69,20.65,15.26,52.33,1022.50,2069.00,1359.02,1617.02,1805.83,600.12,621.85,57.73,0000 0000 0000 0000 000000
2015-12-15 04:04:51,0.16,9.20,0.00,12.38,16.69,20.66,15.35,52.24,1022.49,2069.00,1358.52,1616.31,1804.97,600.31,621.99,57.78,0000 0000 0000 0000 000000
2015-12-15 04:09:53,0.18,9.21,0.00,12.37,16.69,20.60,15.33,52.23,1022.48,2069.00,1357.27,1615.47,1804.08,600.05,621.69,57.83,0000 0000 0000 0000 000000
2015-12-15 04:14:54,0.17,9.22,0.00,12.39,16.69,20.62,15.28,52.21,1022.48,2069.00,1356.27,1614.61,1803.16,599.83,621.58,57.88,0000 0000 0000 0000 000000
2015-12-15 04:19:55,0.13,9.23,0.00,12.41,16.69,20.59,15.23,52.04,1022.48,2069.00,1355.36,1613.93,1802.35,600.20,621.98,57.93,0000 0000 0000 0000 000000
2015-12-15 04:24:57,0.17,9.24,0.00,12.48,16.69,20.57,15.32,51.99,1022.48,2069.00,1354.44,1613.07,1801.45,600.30,621.87,57.98,0000 0000 0000 0000 000000
2015-12-15 04:29:58,0.17,9.25,0.00,12.50,16.69,20.57,15.29,52.04,1022.49,2068.99,1353.38,1612.25,1800.62,599.92,621.32,58.03,0000 0000 0000 0000 000000
2015-12-15 04:35:00,0.16,9.25,0.00,12.49,16.69,20.54,15.28,52.04,1022.48,2068.99,1352.34,1611.44,1799.79,600.21,621.75,58.08,0000 0000 0000 0000 000000
2015-12-15 04:40:01,0.13,9.26,0.00,12.51,16.69,20.56,15.25,52.20,1022.48,2068.98,1351.55,1610.75,1798.94,600.09,621.60,58.13,0000 0000 0000 0000 000000
2015-12-15 04:45:03,0.14,9.27,0.00,12.58,16.69,20.61,15.36,52.23,1022.48,2068.99,1350.51,1609.98,1798.08,600.34,621.69,58.18,0000 0000 0000 0000 000000
2015-12-15 04:50:04,0.18,9.28,0.00,12.62,16.69,20.61,15.11,52.21,1022.48,2068.99,1349.50,1609.11,1797.19,599.67,620.90,58.23,0000 0000 0000 0000 000000
2015-12-15 04:55:05,0.09,9.28,0.00,12.64,16.70,20.63,15.28,52.12,1022.48,2068.99,1349.09,1608.64,1796.54,599.77,620.92,58.28,0000 0000 0000 0000 000000
2015-12-15 05:00:07,0.15,9.29,0.00,12.67,16.72,20.57,15.23,52.23,1022.47,2068.99,1348.12,1607.81,1795.65,599.90,621.02,58.33,0000 0000 0000 0000 000000
2015-12-15 05:05:08,0.16,9.30,0.00,12.70,16.73,20.73,15.26,52.22,1022.38,2068.98,1347.10,1606.96,1794.75,599.98,621.02,58.38,0000 0000 0000 0000 000000
2015-12-15 05:10:09,0.15,9.31,0.00,12.70,16.74,20.71,15.27,52.28,1022.21,2068.98,1346.35,1606.14,1793.93,599.92,620.80,58.44,0000 0000 0000 0000 000000
2015-12-15 05:15:11,0.16,9.32,0.00,12.70,16.75,20.76,15.26,52.24,1022.21,2068.97,1345.64,1605.43,1792.99,600.27,621.18,58.49,0000 0000 0000 0000 000000
2015-12-15 05:20:12,0.19,9.32,0.00,12.72,16.77,20.77,15.21,52.30,1022.16,2068.97,1344.42,1604.58,1792.07,599.63,620.61,58.54,0000 0000 0000 0000 000000
2015-12-15 05:25:13,0.13,9.33,0.00,12.75,16.78,20.76,15.20,52.20,1022.35,2068.96,1343.61,1603.81,1791.27,599.72,620.68,58.59,0000 0000 0000 0000 000000
2015-12-15 05:30:15,0.11,9.34,0.00,12.74,16.79,20.77,15.25,52.30,1022.46,2068.92,1342.88,1602.99,1790.32,600.01,621.09,58.64,0000 0000 0000 0000 000000
2015-12-15 05:35:16,0.17,9.35,0.00,12.72,16.79,20.73,15.31,52.14,1022.46,2068.92,1341.97,1602.14,1789.45,600.38,621.41,58.69,0000 0000 0000 0000 000000
2015-12-15 05:40:17,0.17,9.36,0.00,12.70,16.81,20.76,15.31,52.24,1022.42,2068.81,1341.02,1601.27,1788.54,600.18,621.27,58.74,0000 0000 0000 0000 000000
2015-12-15 05:45:19,0.16,9.36,0.00,12.71,16.82,20.81,15.26,52.31,1022.47,2068.72,1340.05,1600.42,1787.59,599.87,620.82,58.79,0000 0000 0000 0000 000000
2015-12-15 05:50:20,0.11,9.37,0.00,12.73,16.83,20.79,15.27,52.25,1022.48,2068.64,1339.17,1599.74,1786.73,599.96,620.95,58.84,0000 0000 0000 0000 000000
2015-12-15 05:55:21,0.14,9.38,0.00,12.72,16.84,20.78,15.25,52.23,1022.48,2068.44,1338.29,1599.01,1785.89,599.70,620.76,58.89,0000 0000 0000 0000 000000
2015-12-15 06:00:23,0.13,9.38,0.00,12.74,16.85,20.83,15.31,52.27,1022.44,2068.32,1337.43,1598.27,1784.93,600.22,621.20,58.94,0000 0000 0000 0000 000000
2015-12-15 06:05:24,0.16,9.39,0.00,12.77,16.87,20.80,15.30,52.33,1022.41,2068.22,1336.42,1597.46,1784.05,600.09,620.99,58.99,0000 0000 0000 0000 000000
2015-12-15 06:10:25,0.10,9.40,0.00,12.77,16.88,20.80,15.29,52.34,1022.40,2068.23,1335.90,1596.80,1783.20,599.82,620.68,59.04,0000 0000 0000 0000 000000
2015-12-15 06:15:27,0.17,9.41,0.00,12.74,16.89,20.81,15.19,52.13,1022.35,2068.06,1334.75,1595.87,1782.16,599.85,620.75,59.09,0000 0000 0000 0000 000000
2015-12-15 06:20:28,0.16,9.42,0.00,12.72,16.90,20.86,15.29,52.12,1022.38,2068.04,1333.92,1595.02,1781.20,600.08,621.04,59.14,0000 0000 0000 0000 000000
2015-12-15 06:25:29,0.17,9.43,0.00,12.71,16.92,20.82,15.23,51.91,1022.20,2068.02,1333.09,1594.15,1780.22,600.07,621.17,59.19,0000 0000 0000 0000 000000
2015-12-15 06:30:31,0.24,9.44,0.00,12.71,16.92,20.86,15.28,52.13,1022.07,2068.01,1331.71,1593.23,1779.24,600.06,620.85,59.24,0000 0000 0000 0000 000000
2015-12-15 06:35:32,0.20,9.44,0.00,12.72,16.92,20.87,15.29,52.27,1022.07,2068.01,1330.43,1592.27,1778.24,599.96,620.69,59.29,0000 0000 0000 0000 000000
2015-12-15 06:40:33,0.21,9.46,0.00,12.70,16.92,20.85,15.25,52.43,1022.03,2068.01,1328.98,1591.34,1777.23,600.13,620.99,59.35,0000 0000 0000 0000 000000
2015-12-15 06:45:34,0.04,9.46,0.00,12.68,16.92,20.85,15.24,52.30,1022.07,2068.02,1328.72,1590.87,1776.47,600.10,620.91,59.40,0000 0000 0000 0000 000000
2015-12-15 06:50:36,0.15,9.47,0.00,12.68,16.94,20.89,15.21,52.13,1022.07,2068.01,1328.33,1590.05,1775.71,599.92,620.80,59.45,0000 0000 0000 0000 000000
2015-12-15 06:55:37,0.19,9.47,0.00,12.69,16.94,20.89,15.21,52.16,1022.00,2068.01,1327.41,1589.20,1774.74,600.00,620.86,59.50,0000 0000 0000 0000 000000
2015-12-15 07:00:39,0.23,9.49,0.00,12.71,16.94,20.89,15.26,52.21,1021.99,2068.00,1325.82,1588.24,1773.71,600.12,620.88,59.55,0000 0000 0000 0000 000000
2015-12-15 07:05:40,0.17,9.50,0.00,12.71,16.94,20.83,15.24,52.25,1021.99,2068.00,1324.76,1587.35,1772.80,599.90,620.75,59.60,0000 0000 0000 0000 000000
2015-12-15 07:10:41,0.21,9.51,0.00,12.71,16.95,20.82,15.22,52.25,1021.99,2068.00,1323.58,1586.49,1771.79,599.81,620.52,59.65,0000 0000 0000 0000 000000
2015-12-15 07:15:42,0.20,9.52,0.00,12.72,16.95,20.87,15.22,52.40,1021.99,2068.00,1322.22,1585.49,1770.75,599.93,620.64,59.70,0000 0000 0000 0000 000000
2015-12-15 07:20:44,0.12,9.53,0.00,12.72,16.97,20.87,15.29,52.36,1021.98,2068.01,1321.33,1584.81,1769.89,600.01,620.75,59.75,0000 0000 0000 0000 000000
2015-12-15 07:25:45,0.19,9.54,0.00,12.72,16.97,20.87,15.27,52.27,1021.95,2068.01,1320.47,1583.90,1768.91,599.99,620.62,59.80,0000 0000 0000 0000 000000
2015-12-15 07:30:46,0.19,9.55,0.00,12.73,16.97,20.94,15.31,52.42,1021.90,2068.00,1319.36,1582.95,1767.90,599.94,620.61,59.85,0000 0000 0000 0000 000000
2015-12-15 07:35:48,0.18,9.56,0.00,12.70,16.97,20.84,15.25,52.29,1021.82,2068.01,1318.23,1582.04,1766.91,600.15,620.81,59.90,0000 0000 0000 0000 000000
2015-12-15 07:40:49,0.19,9.57,0.00,12.71,16.99,20.87,15.31,52.37,1021.58,2068.00,1317.22,1581.12,1765.89,600.11,620.44,59.95,0000 0000 0000 0000 000000
2015-12-15 07:45:50,0.20,9.58,0.00,12.70,16.99,20.88,15.31,52.37,1021.51,2068.00,1316.24,1580.24,1764.77,600.16,620.65,60.00,0000 0000 0000 0000 000000
2015-12-15 07:50:52,0.18,9.59,0.00,12.70,17.00,20.94,15.29,52.42,1021.51,2068.00,1315.10,1579.23,1763.83,600.03,620.52,60.05,0000 0000 0000 0000 000000
2015-12-15 07:55:53,0.19,9.59,0.00,12.70,17.02,20.91,15.29,52.50,1021.52,2068.00,1314.06,1578.39,1762.79,600.03,620.53,60.10,0000 0000 0000 0000 000000
2015-12-15 08:00:54,0.18,4.48,0.00,12.70,17.05,20.98,13.31,44.70,1021.51,2070.84,2624.45,2543.12,2840.92,530.47,548.60,0.02,0000 0000 0000 0000 000002
2015-12-15 08:05:55,0.17,0.00,0.00,12.73,17.07,20.95,15.18,49.82,1021.50,2073.01,3621.94,3278.60,3663.62,599.69,620.10,0.04,0000 0000 0000 0000 000000
2015-12-15 08:10:57,0.18,0.01,0.00,12.71,17.07,20.90,15.14,49.75,1021.50,2073.00,3617.11,3275.37,3660.04,599.56,620.05,0.09,0000 0000 0000 0000 000000
2015-12-15 08:15:58,0.19,0.02,0.00,12.71,17.08,21.01,15.22,49.69,1021.51,2073.00,3612.53,3272.13,3656.36,599.78,620.31,0.14,0000 0000 0000 0000 000000
2015-12-15 08:20:59,0.19,0.03,0.00,12.73,17.09,20.98,15.19,49.48,1021.50,2073.00,3608.44,3269.05,3652.76,600.02,620.43,0.19,0000 0000 0000 0000 000000
2015-12-15 08:26:00,0.19,0.04,0.00,12.75,17.10,21.00,15.25,49.58,1021.50,2073.00,3604.05,3265.92,3649.30,600.21,620.61,0.24,0000 0000 0000 0000 000000
2015-12-15 08:31:02,0.19,0.05,0.00,12.75,17.12,20.99,15.27,49.57,1021.50,2072.99,3599.80,3262.88,3645.89,600.00,620.40,0.29,0000 0000 0000 0000 000000
2015-12-15 08:36:03,0.18,0.05,0.00,12.76,17.12,21.02,15.21,49.52,1021.50,2072.99,3595.88,3259.89,3642.31,600.39,620.77,0.34,0000 0000 0000 0000 000000
2015-12-15 08:41:05,0.18,0.06,0.00,12.76,17.12,21.05,15.28,49.58,1021.50,2072.99,3591.51,3256.83,3639.12,600.29,620.65,0.39,0000 0000 0000 0000 000000
2015-12-15 08:46:06,0.18,0.07,0.00,12.75,17.13,21.04,15.24,49.53,1021.50,2072.98,3587.27,3253.74,3635.80,600.00,620.38,0.44,0000 0000 0000 0000 000000
2015-12-15 08:51:07,0.19,0.08,0.00,12.78,17.14,21.00,15.22,49.62,1021.50,2072.98,3583.25,3250.65,3632.33,600.13,620.34,0.49,0000 0000 0000 0000 000000
2015-12-15 08:56:08,0.18,0.09,0.00,12.77,17.14,21.01,15.20,49.53,1021.50,2072.96,3579.04,3247.48,3628.91,600.28,620.61,0.54,0000 0000 0000 0000 000000
2015-12-15 09:01:10,0.17,0.10,0.00,12.76,17.14,21.08,15.24,49.56,1021.50,2072.97,3574.87,3244.48,3625.61,599.98,620.32,0.59,0000 0000 0000 0000 000000
2015-12-15 09:06:11,0.19,0.11,0.00,12.76,17.14,21.02,15.12,49.57,1021.50,2072.97,3570.73,3241.41,3622.29,599.71,620.07,0.64,0000 0000 0000 0000 000000
2015-12-15 09:11:12,0.19,0.12,0.00,12.77,17.14,21.04,15.20,49.67,1021.50,2072.98,3566.55,3238.33,3618.93,599.84,620.17,0.69,0000 0000 0000 0000 000000
2015-12-15 09:16:14,0.18,0.13,0.00,12.81,17.15,21.02,15.25,49.44,1021.50,2072.98,3562.47,3235.26,3615.42,600.13,620.53,0.74,0000 0000 0000 0000 000000
2015-12-15 09:21:15,0.18,0.14,0.00,12.80,17.17,21.08,15.13,49.52,1021.50,2072.98,3558.57,3232.26,3612.05,599.66,619.91,0.79,0000 0000 0000 0000 000000
2015-12-15 09:26:17,0.18,0.15,0.00,12.82,17.17,21.05,15.25,49.68,1021.50,2072.97,3554.55,3229.20,3608.62,600.01,620.25,0.84,0000 0000 0000 0000 000000
2015-12-15 09:31:18,0.18,0.16,0.00,12.79,17.18,21.01,15.18,49.58,1021.49,2072.91,3550.28,3226.07,3605.24,599.82,620.11,0.89,0000 0000 0000 0000 000000
2015-12-15 09:36:19,0.19,0.17,0.00,12.81,17.19,21.07,15.19,49.58,1021.50,2072.93,3546.07,3222.95,3601.79,599.55,619.77,0.94,0000 0000 0000 0000 000000
2015-12-15 09:41:20,0.18,0.18,0.00,12.81,17.19,21.09,15.24,49.61,1021.49,2072.86,3541.82,3219.83,3598.34,599.88,620.12,0.99,0000 0000 0000 0000 000000
2015-12-15 09:46:22,0.19,0.19,0.00,12.82,17.19,21.07,15.30,49.73,1021.50,2072.89,3537.69,3216.74,3594.93,600.03,620.23,1.04,0000 0000 0000 0000 000000
2015-12-15 09:51:23,0.19,0.19,0.00,12.84,17.19,21.05,15.18,49.51,1021.50,2072.81,3533.56,3213.55,3591.35,599.93,620.08,1.09,0000 0000 0000 0000 000000
2015-12-15 09:56:24,0.16,0.20,0.00,12.87,17.21,21.07,15.19,49.63,1021.50,2072.49,3529.32,3210.33,3587.79,599.91,619.92,1.14,0000 0000 0000 0000 000000
2015-12-15 10:01:25,0.16,0.21,0.00,12.86,17.22,21.08,15.27,49.70,1021.50,2072.20,3525.20,3207.15,3584.16,599.97,620.10,1.19,0000 0000 0000 0000 000000
2015-12-15 10:06:27,0.18,0.22,0.00,12.87,17.22,21.12,15.27,49.71,1021.50,2072.12,3521.05,3204.05,3580.91,600.27,620.25,1.24,0000 0000 0000 0000 000000
2015-12-15 10:11:28,0.18,0.23,0.00,12.87,17.23,21.16,15.18,49.55,1021.49,2072.05,3517.02,3200.96,3577.62,599.73,619.87,1.29,0000 0000 0000 0000 000000
2015-12-15 10:16:30,0.18,0.24,0.00,12.87,17.24,21.15,15.19,49.72,1021.49,2072.10,3512.97,3198.02,3574.32,599.79,619.95,1.34,0000 0000 0000 0000 000000
2015-12-15 10:21:31,0.18,0.25,0.00,12.88,17.24,21.13,15.08,49.69,1021.50,2072.10,3508.95,3195.03,3570.91,599.33,619.49,1.39,0000 0000 0000 0000 000000
2015-12-15 10:26:33,0.18,0.26,0.00,12.88,17.24,21.12,15.22,49.64,1021.41,2072.12,3505.11,3192.07,3567.65,599.90,619.88,1.44,0000 0000 0000 0000 000000
2015-12-15 10:31:34,0.19,0.27,0.00,12.88,17.24,21.16,15.22,49.64,1021.43,2072.08,3501.04,3188.92,3564.05,600.07,620.11,1.49,0000 0000 0000 0000 000000
2015-12-15 10:36:35,0.19,0.28,0.00,12.88,17.25,21.14,15.23,49.61,1021.30,2072.05,3496.81,3185.73,3560.49,600.26,620.24,1.54,0000 0000 0000 0000 000000
2015-12-15 10:41:36,0.19,0.29,0.00,12.93,17.26,21.11,15.20,49.60,1021.29,2072.03,3492.59,3182.64,3557.16,599.92,619.73,1.59,0000 0000 0000 0000 000000
2015-12-15 10:46:38,0.19,0.30,0.00,12.90,17.27,21.13,15.22,49.53,1021.15,2072.01,3488.55,3179.50,3553.55,600.11,619.81,1.64,0000 0000 0000 0000 000000
2015-12-15 10:51:39,0.19,0.31,0.00,12.91,17.27,21.11,15.17,49.64,1021.03,2072.01,3484.15,3176.37,3550.24,599.94,619.73,1.69,0000 0000 0000 0000 000000
2015-12-15 10:56:40,0.18,0.32,0.00,12.91,17.27,21.16,15.16,49.53,1021.03,2072.00,3480.18,3173.32,3546.84,600.11,619.85,1.74,0000 0000 0000 0000 000000
2015-12-15 11:01:41,0.18,0.33,0.00,12.95,17.27,21.12,15.22,49.60,1021.01,2072.01,3476.22,3170.42,3543.65,600.05,619.69,1.80,0000 0000 0000 0000 000000
2015-12-15 11:06:43,0.19,0.34,0.00,12.92,17.27,21.13,15.23,49.88,1020.96,2072.02,3471.98,3167.38,3540.49,600.36,620.08,1.85,0000 0000 0000 0000 000000
2015-12-15 11:11:44,0.19,0.35,0.00,12.94,17.27,21.05,15.17,49.72,1020.90,2072.02,3467.67,3164.17,3537.14,599.99,619.62,1.90,0000 0000 0000 0000 000000
2015-12-15 11:16:45,0.19,0.36,0.00,12.95,17.27,21.03,15.26,49.83,1020.80,2072.02,3463.68,3161.01,3533.45,600.27,619.79,1.95,0000 0000 0000 0000 000000
2015-12-15 11:21:47,0.18,0.37,0.00,12.97,17.27,21.07,15.20,49.59,1020.61,2072.01,3459.94,3158.11,3530.03,600.03,619.43,2.00,0000 0000 0000 0000 000000
2015-12-15 11:26:48,0.18,0.38,0.00,12.99,17.29,21.11,15.16,49.72,1020.53,2072.01,3456.05,3155.23,3526.96,599.69,619.18,2.05,0000 0000 0000 0000 000000
2015-12-15 11:31:49,0.19,0.38,0.00,12.97,17.29,21.15,15.19,49.94,1020.52,2072.00,3452.03,3152.16,3523.56,599.86,619.15,2.10,0000 0000 0000 0000 000000
2015-12-15 11:36:50,0.18,0.39,0.00,12.97,17.30,21.20,15.10,49.79,1020.52,2072.00,3448.03,3149.16,3520.38,599.16,618.45,2.15,0000 0000 0000 0000 000000
2015-12-15 11:41:51,0.18,0.40,0.00,12.99,17.32,21.21,15.18,49.72,1020.53,2072.00,3444.25,3146.18,3517.07,599.74,618.96,2.20,0000 0000 0000 0000 000000
2015-12-15 11:46:53,0.16,0.41,0.00,13.00,17.33,21.20,15.07,49.33,1020.52,2072.00,3441.40,3143.40,3513.35,599.63,618.83,2.25,0000 0000 0000 0000 000000
2015-12-15 11:51:54,0.14,0.42,0.00,13.01,17.34,21.25,15.24,49.42,1020.52,2071.99,3438.32,3141.08,3510.79,600.08,619.28,2.30,0000 0000 0000 0000 000000
2015-12-15 11:56:55,0.15,0.43,0.00,13.03,17.35,21.27,15.23,49.44,1020.52,2071.98,3435.08,3138.67,3508.24,600.12,619.30,2.35,0000 0000 0000 0000 000000
2015-12-15 12:01:56,0.16,0.44,0.00,13.03,17.36,21.25,15.19,49.53,1020.52,2071.96,3431.21,3136.13,3505.75,599.94,619.15,2.40,0000 0000 0000 0000 000000
2015-12-15 12:06:57,0.16,0.44,0.00,13.04,17.37,21.23,15.17,49.43,1020.52,2071.97,3427.58,3133.52,3502.82,600.25,619.35,2.45,0000 0000 0000 0000 000000
2015-12-15 12:11:59,0.17,0.45,0.00,13.07,17.37,21.27,15.13,49.46,1020.52,2071.97,3423.84,3130.84,3499.89,600.11,619.17,2.50,0000 0000 0000 0000 000000
2015-12-15 12:17:01,0.18,0.46,0.00,13.08,17.37,21.28,15.19,49.59,1020.46,2071.97,3419.87,3127.99,3496.89,600.23,619.27,2.55,0000 0000 0000 0000 000000
2015-12-15 12:22:02,0.18,0.47,0.00,13.06,17.37,21.27,15.26,49.58,1020.11,2071.97,3416.06,3125.09,3493.68,600.23,619.02,2.60,0000 0000 0000 0000 000000
2015-12-15 12:27:03,0.19,0.48,0.00,13.06,17.37,21.24,15.19,49.88,1020.08,2071.98,3412.10,3122.13,3490.40,600.04,618.79,2.65,0000 0000 0000 0000 000000
2015-12-15 12:32:05,0.15,0.49,0.00,13.07,17.39,21.26,15.23,49.57,1020.06,2071.98,3408.89,3119.39,3487.11,600.14,618.94,2.70,0000 0000 0000 0000 000000
2015-12-15 12:37:06,0.14,0.50,0.00,13.07,17.39,21.25,15.18,49.51,1020.04,2071.90,3405.72,3116.96,3484.28,599.76,618.54,2.75,0000 0000 0000 0000 000000
2015-12-15 12:42:08,0.16,0.50,0.00,13.07,17.39,21.25,15.15,49.55,1020.03,2071.84,3402.29,3114.38,3481.48,599.94,618.75,2.80,0000 0000 0000 0000 000000
2015-12-15 12:47:09,0.16,0.51,0.00,13.09,17.42,21.21,15.16,49.54,1020.03,2071.59,3398.35,3111.53,3478.61,599.98,618.65,2.85,0000 0000 0000 0000 000000
2015-12-15 12:52:10,0.20,0.52,0.00,13.10,17.42,21.29,15.13,49.79,1020.02,2071.74,3394.53,3108.67,3475.48,599.54,618.20,2.90,0000 0000 0000 0000 000000
2015-12-15 12:57:12,0.18,0.53,0.00,13.10,17.43,21.33,15.18,49.60,1020.03,2071.81,3391.05,3105.90,3472.36,599.97,618.63,2.95,0000 0000 0000 0000 000000